Time,TemperatureF,DewpointF,PressureIn,WindDirection,WindDirectionDegrees,WindSpeedMPH,WindSpeedGustMPH,Humidity,HourlyPrecipIn,Conditions,Clouds,dailyrainin,SoftwareType,DateUTC
2013-06-06 00:00:00,51.0,-99.9,-100.00,North,-999,-999.0,-999.0,-999,-99.99,,,-99.99,,2013-06-06 06:00:00,
2013-06-06 00:52:00,51.0,-99.9,-100.00,North,-999,-999.0,-999.0,-999,-99.99,,,-99.99,,2013-06-06 06:52:00,
2013-06-06 01:00:00,50.0,-99.9,-100.00,North,-999,-999.0,-999.0,-999,-99.99,,,-99.99,,2013-06-06 07:00:00,
2013-06-06 01:53:00,50.0,-99.9,-100.00,North,-999,-999.0,-999.0,-999,-99.99,,,-99.99,,2013-06-06 07:53:00,
2013-06-06 03:00:00,49.0,-99.9,-100.00,North,-999,-999.0,-999.0,-999,-99.99,,,-99.99,,2013-06-06 09:00:00,
2013-06-06 03:53:00,49.0,-99.9,-100.00,North,-999,-999.0,-999.0,-999,-99.99,,,-99.99,,2013-06-06 09:53:00,
2013-06-06 04:00:00,47.0,-99.9,-100.00,North,-999,-999.0,-999.0,-999,-99.99,,,0.00,,2013-06-06 10:00:00,
2013-06-06 04:53:00,47.0,-99.9,-100.00,North,-999,-999.0,-999.0,-999,-99.99,,,0.00,,2013-06-06 10:53:00,
2013-06-06 05:00:00,47.0,-99.9,-100.00,North,-999,-999.0,-999.0,-999,-99.99,,,-99.99,,2013-06-06 11:00:00,
2013-06-06 05:52:00,47.0,-99.9,-100.00,North,-999,-999.0,-999.0,-999,-99.99,,,-99.99,,2013-06-06 11:52:00,
2013-06-06 06:00:00,47.0,-99.9,-100.00,North,-999,-999.0,-999.0,-999,-99.99,,,-99.99,,2013-06-06 12:00:00,
2013-06-06 06:53:00,47.0,-99.9,-100.00,North,-999,-999.0,-999.0,-999,-99.99,,,-99.99,,2013-06-06 12:53:00,
2013-06-06 07:00:00,46.0,-99.9,-100.00,North,-999,-999.0,-999.0,-999,-99.99,,,-99.99,,2013-06-06 13:00:00,
2013-06-06 07:53:00,46.0,-99.9,-100.00,North,-999,-999.0,-999.0,-999,-99.99,,,-99.99,,2013-06-06 13:53:00,
2013-06-06 08:00:00,49.0,-99.9,-100.00,North,-999,-999.0,-999.0,-999,-99.99,,,0.00,,2013-06-06 14:00:00,
2013-06-06 09:00:00,53.0,-99.9,-100.00,North,-999,-999.0,-999.0,-999,-99.99,,,0.01,,2013-06-06 15:00:00,
2013-06-06 10:00:00,58.0,-99.9,-100.00,North,-999,-999.0,-999.0,-999,-99.99,,,-99.99,,2013-06-06 16:00:00,
2013-06-06 10:53:00,58.0,-99.9,-100.00,North,-999,-999.0,-999.0,-999,-99.99,,,-99.99,,2013-06-06 16:53:00,
2013-06-06 11:00:00,64.0,-99.9,-100.00,North,-999,-999.0,-999.0,-999,-99.99,,,0.00,,2013-06-06 17:00:00,
2013-06-06 11:53:00,64.0,-99.9,-100.00,North,-999,-999.0,-999.0,-999,-99.99,,,0.00,,2013-06-06 17:53:00,
2013-06-06 12:00:00,64.0,-99.9,-100.00,North,-999,-999.0,-999.0,-999,-99.99,,,-99.99,,2013-06-06 18:00:00,
2013-06-06 12:53:00,64.0,-99.9,-100.00,North,-999,-999.0,-999.0,-999,-99.99,,,-99.99,,2013-06-06 18:53:00,
2013-06-06 13:00:00,67.0,-99.9,-100.00,North,-999,-999.0,-999.0,-999,-99.99,,,0.00,,2013-06-06 19:00:00,
2013-06-06 13:53:00,67.0,-99.9,-100.00,North,-999,-999.0,-999.0,-999,-99.99,,,0.00,,2013-06-06 19:53:00,
2013-06-06 14:00:00,68.0,-99.9,-100.00,North,-999,-999.0,-999.0,-999,-99.99,,,0.01,,2013-06-06 20:00:00,
2013-06-06 14:53:00,68.0,-99.9,-100.00,North,-999,-999.0,-999.0,-999,-99.99,,,0.01,,2013-06-06 20:53:00,
2013-06-06 15:00:00,68.0,-99.9,-100.00,North,-999,-999.0,-999.0,-999,-99.99,,,0.01,,2013-06-06 21:00:00,
2013-06-06 15:53:00,68.0,-99.9,-100.00,North,-999,-999.0,-999.0,-999,-99.99,,,0.01,,2013-06-06 21:53:00,
2013-06-06 16:00:00,70.0,-99.9,-100.00,North,-999,-999.0,-999.0,-999,-99.99,,,0.04,,2013-06-06 22:00:00,
2013-06-06 16:44:00,70.0,-99.9,-100.00,North,-999,-999.0,-999.0,-999,-99.99,,,0.04,,2013-06-06 22:44:00,
2013-06-06 16:53:00,70.0,-99.9,-100.00,North,-999,-999.0,-999.0,-999,-99.99,,,0.04,,2013-06-06 22:53:00,
2013-06-06 17:00:00,72.0,-99.9,-100.00,North,-999,-999.0,-999.0,-999,-99.99,,,0.04,,2013-06-06 23:00:00,
2013-06-06 17:52:00,72.0,-99.9,-100.00,North,-999,-999.0,-999.0,-999,-99.99,,,0.04,,2013-06-06 23:52:00,
2013-06-06 18:00:00,73.0,-99.9,-100.00,North,-999,-999.0,-999.0,-999,-99.99,,,0.02,,2013-06-07 00:00:00,
2013-06-06 18:52:00,73.0,-99.9,-100.00,North,-999,-999.0,-999.0,-999,-99.99,,,0.02,,2013-06-07 00:52:00,
2013-06-06 19:00:00,69.0,-99.9,-100.00,North,-999,-999.0,-999.0,-999,-99.99,,,0.00,,2013-06-07 01:00:00,
2013-06-06 19:53:00,69.0,-99.9,-100.00,North,-999,-999.0,-999.0,-999,-99.99,,,0.00,,2013-06-07 01:53:00,
2013-06-06 20:00:00,63.0,-99.9,-100.00,North,-999,-999.0,-999.0,-999,-99.99,,,-99.99,,2013-06-07 02:00:00,
2013-06-06 20:52:00,63.0,-99.9,-100.00,North,-999,-999.0,-999.0,-999,-99.99,,,-99.99,,2013-06-07 02:52:00,
2013-06-06 21:00:00,60.0,-99.9,-100.00,North,-999,-999.0,-999.0,-999,-99.99,,,-99.99,,2013-06-07 03:00:00,
2013-06-06 21:53:00,60.0,-99.9,-100.00,North,-999,-999.0,-999.0,-999,-99.99,,,-99.99,,2013-06-07 03:53:00,
2013-06-06 22:00:00,56.0,-99.9,-100.00,North,-999,-999.0,-999.0,-999,-99.99,,,-99.99,,2013-06-07 04:00:00,
2013-06-06 22:54:00,56.0,-99.9,-100.00,North,-999,-999.0,-999.0,-999,-99.99,,,-99.99,,2013-06-07 04:54:00,
2013-06-06 23:00:00,54.0,-99.9,-100.00,North,-999,-999.0,-999.0,-999,-99.99,,,-99.99,,2013-06-07 05:00:00,
2013-06-06 23:52:00,54.0,-99.9,-100.00,North,-999,-999.0,-999.0,-999,-99.99,,,-99.99,,2013-06-07 05:52:00,